DELTA 1 DEB, 2154

Orbit data source: Space-Track

DELTA 1 DEB, 2154 is space debris in SSO originally from a launch on Thu, 03 Feb 1966 UTC launched from the Air Force Eastern Test Range (AFETR). Debris objects in space refer to the collection of defunct objects orbiting the Earth. Examples of debris include non-operational satellites, rocket bodies, and fragments generated from explosions, collisions, or faulty payload assembly.

Loading next visibility...
Identifier
2154, 1966-008E
Orbit
SSO
Last TLE update
7 hours ago
Origin
Manufacturer
Unknown
Mission
Spacecraft
Bus & Motor
Unknown
Mass
Unknown
Launch date (UTC)
1966-02-03 (59 years ago)
Launch vehicle
Unknown
Launch site
Air Force Eastern Test Range (AFETR)
Object type
Payload
Rocket body
Debris
Shape & HBR
Unknown
Radar Cross Section
Small (<0.1 m²)

Expand to show TLE details & history

TLE from 7 hours ago
0 DELTA 1 DEB
1 02154U 66008E   25186.58781820  .00000801  00000-0  13755-3 0  9996
2 02154  97.8403 309.8702 0046590 339.9213  20.0160 14.70621461128055
Epoch: 2025-07-05T14:06Z
TLE epoch observation values (Epoch: 2025-07-05T14:06:27.492Z)
Latitude
0.00002°
Longitude
174.43193°
Altitude
631.301 km
Speed
7.559 km/s
True Right ascension
20h 39m 28s
True Declination
0° 00' 00"
Sunlit
Object was in full shadow at epoch
Visualization orbit readout
Latitude
-22.675°
Longitude
-8.54967°
Altitude
691.283 km
Speed
7.497 km/s
Apparent Right ascension
06h 03m 35s
Apparent Declination
-71° 46' 42"
Sunlit
Object is in daylight
Visualization observer readout
Local Sidereal Time
09:29:41
Azimuth
196.006° SSW
Elevation
-27.404°
Doppler factor
1
Orbital elements
Apogee altitude
688.908 km
Perigee altitude
623.363 km
Semi-major axis
7,034.272 km
Eccentricity
0.00466
Inclination
97.8403°
RAAN
309.8702°
Arg. of periapsis
339.9213°
True anomaly
Unknown
Mean anomaly
20.016°
Eccentric anomaly
Unknown
Mean motion
3.67887 °/min
Orbital period
97.86 mins
BSTAR
0.00013755
Loading maneuver chart data...
Loading SW <> Apogee altitude chart data...
Loading historical data...
Loading historical data...
Loading historical data...
Loading historical data...
Loading historical data...
Loading historical data...
Loading historical data...
Other satellites on launch #8 in the year 1966 (1966-02-03 UTC)

DELTA 1 DEB Visibility forecast

Observer location: undefined°, undefined°

Span
Click to sort rows by Start time (UTC) header in descending order
Start Az.
Max El. time (UTC)
Max El. Az.
Max El.
End time (UTC)
End Az.
7 mins2025-07-06 08:11:38.402Z163.354° S2025-07-06 08:14:38.402Z148.254° SSE43.272°2025-07-06 08:18:38.402Z349.471° N
5 mins2025-07-06 20:06:38.402Z63.16° ENE2025-07-06 20:08:38.402Z95.896° ESE19.077°2025-07-06 20:11:38.402Z138.318° SSE
|